[[{"header":{"parameterUnit":"m.s-1","parameterCategory":1,"la1":30.2992,"la2":30.254,"lo1":-89.0895,"lo2":-89.0443,"dy":0.0025,"dx":0.0025,"nx":19,"ny":19,"refTime":"2026-04-20T09:00:00:Z","depth":0,"parameterNumber":2,"parameterNumberName":"U-component_of_WINDS"},"data":[0,0,0,-2.6491,-2.6495,-2.666,-2.6661,-2.6906,-2.6909,0,0,0,0,0,0,0,0,0,0,0,-2.6464,-2.6466,-2.6491,-2.6496,-2.666,-2.6661,-2.6906,-2.6909,0,0,0,0,0,0,0,0,0,0,0,-2.6462,-2.6465,-2.6468,-2.6497,-2.666,-2.6661,-2.6905,-2.6769,0,0,0,0,0,0,0,0,0,0,-2.6603,-2.6597,-2.6465,-2.6468,-2.6498,-2.666,-2.6661,-2.6761,-2.6777,-2.6846,0,-2.6913,0,-2.6915,-2.6927,-2.6928,0,0,0,-2.6481,-2.6585,-2.661,-2.6469,-2.6499,-2.666,-2.6582,-2.677,-2.6788,-2.6868,-2.6916,-2.6925,-2.6919,-2.6929,-2.693,-2.7382,-2.7385,0,0,-2.6471,-2.6505,-2.6598,-2.6622,-2.6599,-2.6577,-2.6587,-2.678,-2.6836,-2.6917,-2.693,-2.6923,-2.6931,-2.6933,-2.7379,-2.7383,0,0,0,-2.6456,-2.6499,-2.6519,-2.6613,-2.664,-2.6582,-2.6594,-2.6827,-2.6831,-2.6932,-2.6926,-2.6933,-2.6936,-2.7376,-2.738,-2.7556,0,0,0,-2.6449,-2.649,-2.6516,-2.6538,-2.6637,-2.6736,-2.6637,-2.6817,-2.6838,-2.6925,-2.6933,-2.6939,-2.7373,-2.7378,-2.7544,-2.7635,0,0,0,-2.6446,-2.6489,-2.652,-2.6539,-2.6611,-2.6732,-2.6746,-2.6821,-2.6836,-2.6928,-2.6939,-2.7371,-2.7377,-2.7534,-2.7618,-2.7767,0,0,0,-2.6452,-2.6672,-2.6523,-2.6767,-2.661,-2.6838,-2.6744,-2.6912,-2.7012,-2.6934,-2.7373,-2.738,-2.7531,-2.7607,-2.7756,-2.7902,-2.7965,0,0,-2.6749,-2.6709,-2.6849,-2.6721,-2.6985,-2.681,-2.7099,-2.7158,-2.7136,-2.7301,-2.7312,-2.7548,-2.7617,-2.7765,-2.8295,-2.8345,0,0,0,-2.6955,-2.7058,-2.7119,-2.7217,-2.7267,-2.7319,-2.7331,-2.7353,-2.7492,-2.7227,-2.7638,-2.7678,-2.7764,-2.7832,-2.7875,-2.7948,-2.7411,-2.7411,-2.741,-2.7427,-2.7386,-2.7617,-2.7597,-2.7692,-2.7702,-2.7776,-2.7807,-2.7737,-2.7835,-2.7886,-2.8213,-2.8294,-2.8326,-2.8403,-2.7955,-2.7956,-2.7956,-2.7957,-2.7863,-2.8004,-2.7904,-2.8094,-2.805,-2.8208,-2.8225,-2.8171,-2.8313,-2.817,-2.8244,-2.8098,-2.8382,-2.8447,-2.7969,-2.7967,-2.7966,-2.7964,-2.7964,-2.8173,-2.8233,-2.8255,-2.8392,-2.8502,-2.8471,-2.8613,-2.8565,-2.8522,-2.8594,-2.8645,-2.8642,-2.8638,-2.862,-2.8621,-2.8622,-2.8623,-2.8624,-2.8625,-2.8488,-2.8507,-2.8632,-2.8704,-2.876,-2.8829,-2.8839,-2.8893,-2.8942,-2.8897,-2.8897,-2.8821,-2.8415,-2.8318,-2.8643,-2.8639,-2.8637,-2.8636,-2.8634,-2.8956,-2.8842,-2.9037,-2.9094,-2.9174,-2.9288,-2.9223,-2.9338,-2.9376,-2.9448,-2.9354,-2.906,-2.9017,-2.8982,-2.8902,-2.9359,-2.9359,-2.9359,-2.9359,-2.9222,-2.9194,-2.9383,-2.9477,-2.9563,-2.9525,-2.9747,-2.9757,-2.9749,-2.977,-2.9695,-2.9581,-2.9548,-2.9525,-2.9479,-2.9404,-2.9978,-2.9979,-2.9979,-2.951,-2.9488,-2.9688,-2.9677,-2.9736,-2.9788,-2.9997,-3.011,-3.0076,-3.0003,-2.9786,-2.976,-2.9576,-2.9518,-2.9448,-2.9377,-2.9238,0,0]},{"header":{"parameterUnit":"m.s-1","parameterCategory":1,"la1":30.2992,"la2":30.254,"lo1":-89.0895,"lo2":-89.0443,"dy":0.0025,"dx":0.0025,"nx":19,"ny":19,"refTime":"2026-04-20T09:00:00:Z","depth":0,"parameterNumber":3,"parameterNumberName":"V-component_of_WINDS"},"data":[0,0,0,-4.7474,-4.7478,-4.7659,-4.7659,-4.79,-4.7902,0,0,0,0,0,0,0,0,0,0,0,-4.7429,-4.7431,-4.7473,-4.7478,-4.7659,-4.7659,-4.79,-4.7902,0,0,0,0,0,0,0,0,0,0,0,-4.7428,-4.7431,-4.7433,-4.7479,-4.7659,-4.7659,-4.7899,-4.7759,0,0,0,0,0,0,0,0,0,0,-4.7581,-4.755,-4.743,-4.7433,-4.748,-4.7658,-4.7659,-4.7752,-4.7767,-4.7823,0,-4.7878,0,-4.7894,-4.7919,-4.792,0,0,0,-4.7471,-4.7537,-4.7577,-4.7433,-4.7482,-4.7658,-4.7575,-4.776,-4.7778,-4.7844,-4.7881,-4.789,-4.7898,-4.7921,-4.7922,-4.8275,-4.8277,0,0,-4.7461,-4.7466,-4.7565,-4.7589,-4.7565,-4.7569,-4.7581,-4.7771,-4.7811,-4.7882,-4.7895,-4.7902,-4.7923,-4.7925,-4.8273,-4.8275,0,0,0,-4.7437,-4.7459,-4.7495,-4.758,-4.7612,-4.7575,-4.7588,-4.7802,-4.7813,-4.7898,-4.7905,-4.7924,-4.7927,-4.8271,-4.8274,-4.8378,0,0,0,-4.7431,-4.7445,-4.7491,-4.7496,-4.7609,-4.771,-4.7615,-4.78,-4.7822,-4.7904,-4.7924,-4.793,-4.8269,-4.8272,-4.8371,-4.8427,0,0,0,-4.7414,-4.7443,-4.7473,-4.7496,-4.7574,-4.7707,-4.7729,-4.7805,-4.7827,-4.792,-4.793,-4.8267,-4.8272,-4.8364,-4.8416,-4.8521,0,0,0,-4.7397,-4.7562,-4.7474,-4.7661,-4.7573,-4.7771,-4.7728,-4.7874,-4.7967,-4.7925,-4.8269,-4.8274,-4.8362,-4.8409,-4.8514,-4.8612,-4.8653,0,0,-4.7608,-4.7587,-4.7697,-4.7624,-4.7839,-4.7743,-4.7972,-4.8051,-4.8054,-4.82,-4.8209,-4.8373,-4.8415,-4.852,-4.8881,-4.8914,0,0,0,-4.7765,-4.7843,-4.7899,-4.7989,-4.8055,-4.8115,-4.8159,-4.8188,-4.8312,-4.8131,-4.8439,-4.8464,-4.8525,-4.8572,-4.86,-4.8652,-4.8295,-4.8295,-4.8294,-4.807,-4.8066,-4.8246,-4.8265,-4.8352,-4.8395,-4.8465,-4.8511,-4.8481,-4.8553,-4.8597,-4.8817,-4.8871,-4.8892,-4.8947,-4.8648,-4.8648,-4.8649,-4.8649,-4.8378,-4.8488,-4.8445,-4.8604,-4.8598,-4.8731,-4.8778,-4.8752,-4.8873,-4.8784,-4.8837,-4.8741,-4.8929,-4.8976,-4.8657,-4.8655,-4.8654,-4.8654,-4.8653,-4.8578,-4.863,-4.8664,-4.8793,-4.8892,-4.8903,-4.9022,-4.9011,-4.9002,-4.9055,-4.91,-4.9098,-4.9095,-4.9077,-4.9078,-4.9079,-4.908,-4.908,-4.9081,-4.8772,-4.8806,-4.8909,-4.8993,-4.9048,-4.912,-4.9164,-4.9218,-4.9275,-4.9258,-4.9258,-4.922,-4.8948,-4.888,-4.9092,-4.909,-4.9089,-4.9088,-4.9087,-4.9087,-4.9014,-4.9173,-4.9229,-4.9325,-4.9424,-4.9409,-4.9519,-4.9562,-4.962,-4.9571,-4.9371,-4.9349,-4.9326,-4.927,-4.9571,-4.9571,-4.9571,-4.9571,-4.9256,-4.9244,-4.9404,-4.9494,-4.9581,-4.9584,-4.9761,-4.9796,-4.982,-4.9846,-4.98,-4.9724,-4.9702,-4.9693,-4.9663,-4.961,-4.9991,-4.9991,-4.9992,-4.945,-4.9445,-4.96,-4.9625,-4.9698,-4.9761,-4.9927,-5.003,-5.0042,-5.0009,-4.9865,-4.9848,-4.9725,-4.9685,-4.9649,-4.9603,-4.9506,0,0]}]]